,

(GMT )
Oslo

Wetter Verlauf für ENFB - Februar, 2017

Change the Weather History Date:

Freitag, Februar 17, 2017

  Actual Average Record
Temperature  
mittlereTemperatur 31 °F -  
Max. Temperatur 46 °F 38 °F 46 °F (2017)
Min.Temperatur 16 °F 25 °F 8 °F (1997)
Degree Days  
Heizgradtage 34    
Moisture  
Taupunkt 35 °F    
Average Humidity 83    
Maximum Humidity 93    
Minimum Humidity 67    
Niederschlag  
Niederschlag 0.00 inch - - ()
Luftdruck in Meereshöhe  
Luftdruck in Meereshöhe 30.11 inch    
Wind  
Windgeschwindigkeit 10 mph ()    
Max. Windgeschwindigkeit 26 mph    
Max Gust Speed -    
Sichtweite 6.2 Meilen    
Ereignisse Regen    
Averages and records for this station are not official NWS values.
T = Trace of Precipitation, MM = Missing Value Source: Averaged Metar Reports

Daily Weather History Graph

Daily Weather History Graph

Search for Another Location

Airport or City:

Trip Planner

Search our weather history database for the weather conditions in past years. The results will help you decide how hot, cold, wet, or windy it might be!

Date:

Astronomie

Feb. 17, 2017 Aufgang Untergang
Genaue Zeit 07:49 CET 17:13 CET
Bürgerliche Dämmerung 07:05 CET 17:56 CET
Nautische Dämmerung 06:17 CET 18:45 CET
Astronomische Dämmerung 05:28 CET 19:33 CET
Mond 00:08 CET (2/17) 09:54 CET (2/17)
Länge des sichtbaren Lichts 10h 50m
Tageslänge
9h 23m
Drittes Viertel, 63% of the Moon is Illuminated
Feb 17
Drittes Viertel
Feb 18
Letztes Viertel
Feb 26
Neu
Mrz 5
Erstes Viertel
Mrz 12
Vollmond

Hourly Weather History & Observations

Zeit (CET) Temp. Windchill Taupunkt Feuchtigkeit Druck Sichtweite Wind Dir Windgeschwindigkeit Böengeschwindigkeit Precip Ereignisse Wetterzustand
12:00 AM 26 °F - 24 °F 88%  inch - Ruhig Ruhig - -  
12:20 AM 44.6 °F 38.8 °F 41.0 °F 87% 30.04 inch 6.2 mi Nordwest 11.5 mph - N/A   Teils Wolkig
12:50 AM 44.6 °F 38.8 °F 41.0 °F 87% 30.04 inch 6.2 mi Nordwest 11.5 mph - N/A   Teils Wolkig
1:00 AM 25 °F - 23 °F 87%  inch - Ruhig Ruhig - -  
1:20 AM 44.6 °F 38.4 °F 41.0 °F 87% 30.04 inch 6.2 mi West-Nordwest 12.7 mph - N/A   Wolkig
1:50 AM 46.4 °F 38.3 °F 42.8 °F 87% 30.04 inch 5.0 mi Nordwest 23.0 mph - N/A Regen Leichte Regenschauer
2:00 AM 25 °F - 23 °F 89%  inch - Nordwest 2.2 mph - -  
2:20 AM 46.4 °F 38.5 °F 42.8 °F 87% 30.04 inch 6.2 mi Nordwest 21.9 mph - N/A   Wolkig
2:50 AM 44.6 °F 37.2 °F 42.8 °F 93% 30.06 inch 6.2 mi Nordwest 17.3 mph - N/A   Wolkig
3:00 AM 24 °F - 21 °F 85%  inch - Ruhig Ruhig - -  
3:20 AM 44.6 °F 37.4 °F 41.0 °F 87% 30.06 inch 6.2 mi Nordwest 16.1 mph - N/A   Wolkig
3:50 AM 44.6 °F 37.2 °F 39.2 °F 81% 30.06 inch 6.2 mi Nordwest 17.3 mph - N/A   Wolkig
4:00 AM 19 °F - 17 °F 89%  inch - Ruhig Ruhig - -  
4:20 AM 42.8 °F 34.3 °F 39.2 °F 87% 30.06 inch 6.2 mi Nord-Nordwest 19.6 mph - N/A   Wolkig
4:50 AM 44.6 °F 36.6 °F 39.2 °F 81% 30.09 inch 6.2 mi Nordwest 19.6 mph - N/A   Wolkig
5:00 AM 18 °F - 16 °F 89%  inch - Ruhig Ruhig - -  
5:20 AM 44.6 °F 36.1 °F 39.2 °F 81% 30.09 inch 6.2 mi Nordwest 21.9 mph - N/A   Wolkig
5:50 AM 44.6 °F 36.4 °F 37.4 °F 76% 30.09 inch 6.2 mi Nordwest 20.7 mph - N/A   Wolkig
6:00 AM 18 °F - 16 °F 87%  inch - Ruhig Ruhig - -  
6:20 AM 44.6 °F - 39.2 °F 81% 30.09 inch 6.2 mi Nord - - N/A   Unbekannt
6:50 AM 44.6 °F 36.6 °F 39.2 °F 81% 30.09 inch 6.2 mi West-Nordwest 19.6 mph - N/A   Wolkig
7:00 AM 18 °F - 16 °F 87%  inch - Ruhig Ruhig - -  
7:20 AM 44.6 °F 36.9 °F 39.2 °F 81% 30.12 inch 6.2 mi West-Nordwest 18.4 mph - N/A   Wolkig
7:50 AM 44.6 °F 37.4 °F 39.2 °F 81% 30.12 inch 6.2 mi Nordwest 16.1 mph - N/A   Wolkig
8:00 AM 16 °F - 14 °F 88%  inch - Ruhig Ruhig - -  
8:20 AM - - - N/A% 0.00 inch - Nordwest 16.1 mph - N/A   Wolkig
8:50 AM 44.6 °F 38.1 °F 39.2 °F 81% 30.12 inch 6.2 mi Nordwest 13.8 mph - N/A   Unbekannt
9:00 AM 19 °F - 17 °F 88%  inch - Ruhig Ruhig - -  
9:20 AM 44.6 °F 38.8 °F 39.2 °F 81% 30.12 inch 6.2 mi West-Nordwest 11.5 mph - N/A   Wolkig
9:50 AM 44.6 °F 38.8 °F 39.2 °F 81% 30.15 inch 6.2 mi West-Nordwest 11.5 mph - N/A   Wolkig
10:00 AM 22 °F - 18 °F 77%  inch - Nordwest 2.2 mph - -  
10:20 AM 46.4 °F 41.5 °F 39.2 °F 76% 30.15 inch 6.2 mi Nordwest 10.4 mph - N/A   Wolkig
10:50 AM 46.4 °F 42.9 °F 41.0 °F 81% 30.15 inch 6.2 mi West-Nordwest 6.9 mph - N/A   Wolkig
11:00 AM 27 °F - 21 °F 70%  inch - West 2.2 mph - -  
11:20 AM 46.4 °F 41.9 °F 41.0 °F 81% 30.15 inch 6.2 mi West-Nordwest 9.2 mph - N/A   Wolkig
11:50 AM 46.4 °F 41.9 °F 41.0 °F 81% 30.15 inch 6.2 mi West 9.2 mph - N/A   Wolkig
12:00 PM 30 °F - 23 °F 67%  inch - West-Nordwest 2.2 mph - -  
12:20 PM 46.4 °F 41.5 °F 41.0 °F 81% 30.18 inch 6.2 mi West 10.4 mph - N/A   Leichtes Nieseln
12:50 PM 46.4 °F 40.4 °F 37.4 °F 71% 30.15 inch 6.2 mi West-Südwest 13.8 mph - N/A   Wolkig
1:00 PM 31 °F - 25 °F 69%  inch - Ruhig Ruhig - -  
1:20 PM 46.4 °F 41.5 °F 37.4 °F 71% 30.15 inch 6.2 mi West-Südwest 10.4 mph - N/A   Wolkig
1:50 PM 46.4 °F 40.1 °F 39.2 °F 76% 30.15 inch 6.2 mi West-Südwest 15.0 mph - N/A   Wolkig
2:20 PM 46.4 °F 40.1 °F 39.2 °F 76% 30.15 inch 6.2 mi Südwest 15.0 mph - N/A   Wolkig
2:50 PM 44.6 °F 37.4 °F 41.0 °F 87% 30.15 inch 6.2 mi Süd-Südwest 16.1 mph - N/A   Wolkig
3:20 PM 46.4 °F 41.1 °F 42.8 °F 87% 30.15 inch 6.2 mi Süd-Südwest 11.5 mph - N/A   Wolkig
3:50 PM 46.4 °F 39.2 °F 44.6 °F 93% 30.15 inch 6.2 mi West-Südwest 18.4 mph - N/A   Teils Wolkig
4:00 PM 32 °F - 27 °F 74%  inch - West-Nordwest 2.2 mph - -  
4:20 PM 46.4 °F 39.5 °F 42.8 °F 87% 30.15 inch 6.2 mi West-Südwest 17.3 mph - N/A   Wolkig
4:50 PM 46.4 °F 40.4 °F 42.8 °F 87% 30.12 inch 6.2 mi West-Südwest 13.8 mph - N/A   Bedeckt
5:00 PM 30 °F - 26 °F 80%  inch - West 2.2 mph - -  
5:20 PM 46.4 °F 39.0 °F 42.8 °F 87% 30.12 inch 6.2 mi West-Südwest 19.6 mph - N/A   Wolkig
5:50 PM 46.4 °F 38.7 °F 41.0 °F 81% 30.12 inch 6.2 mi West-Südwest 20.7 mph - N/A   Bedeckt
6:00 PM 28 °F - 25 °F 84%  inch - West 2.2 mph - -  
6:20 PM 46.4 °F 39.0 °F 42.8 °F 87% 30.12 inch 6.2 mi West-Südwest 19.6 mph - N/A   Bedeckt
6:50 PM 46.4 °F 38.7 °F 42.8 °F 87% 30.12 inch 6.2 mi Südwest 20.7 mph - N/A   Bedeckt
7:20 PM 46.4 °F 39.5 °F 42.8 °F 87% 30.12 inch 6.2 mi Südwest 17.3 mph - N/A   Bedeckt
7:50 PM 46.4 °F 39.2 °F 42.8 °F 87% 30.12 inch 6.2 mi Südwest 18.4 mph - N/A   Wolkig
8:00 PM 28 °F - 26 °F 86%  inch - West-Nordwest 2.2 mph - -  
8:20 PM 46.4 °F 39.2 °F 42.8 °F 87% 30.12 inch 6.2 mi Südwest 18.4 mph - N/A   Bedeckt
8:50 PM 46.4 °F 39.0 °F 42.8 °F 87% 30.12 inch 6.2 mi Südwest 19.6 mph - N/A   Wolkig
9:20 PM 46.4 °F 38.7 °F 42.8 °F 87% 30.09 inch 6.2 mi Südwest 20.7 mph - N/A   Teils Wolkig
9:50 PM 46.4 °F 38.7 °F 41.0 °F 81% 30.09 inch 6.2 mi Südwest 20.7 mph - N/A   Unbekannt
10:00 PM 27 °F - 24 °F 86%  inch - Südost 2.2 mph - -  
10:20 PM 46.4 °F 39.0 °F 41.0 °F 81% 30.09 inch 6.2 mi Südwest 19.6 mph - N/A   Unbekannt
10:50 PM 46.4 °F 38.7 °F 41.0 °F 81% 30.09 inch 6.2 mi Süd-Südwest 20.7 mph - N/A   Teils Wolkig
11:00 PM 24 °F - 22 °F 87%  inch - Ruhig Ruhig - -  
11:20 PM 46.4 °F 38.5 °F 41.0 °F 81% 30.09 inch 6.2 mi Süd-Südwest 21.9 mph - N/A   Wolkig
11:50 PM 46.4 °F 37.7 °F 41.0 °F 81% 30.06 inch 6.2 mi Süd-Südwest 26.5 mph - N/A   Teils Wolkig